Weather History for Thermal, CA

Change the Weather History Date:

Monday, December 3, 2012

  Actual Average Record
Temperature  
Mean Temperature 67 °F 54 °F  
Max Temperature 80 °F 72 °F 93 °F (1958)
Min Temperature 54 °F 37 °F 26 °F (1996)
Degree Days  
Heating Degree Days 0 11  
Month to date heating degree days 0 31  
Since 1 July heating degree days 97 198  
Cooling Degree Days 2 0  
Month to date cooling degree days 5 0  
Year to date cooling degree days 4281 3686  
Growing Degree Days 17 (Base 50)    
Moisture  
Dew Point 52 °F    
Average Humidity 58    
Maximum Humidity 77    
Minimum Humidity 39    
Precipitation  
Precipitation 0.00 in 0.01 in 0.14 in (1992)
Month to date precipitation T 0.03  
Year to date precipitation 2.40 2.88  
Since 1 July precipitation 2.04 1.06  
Snow  
Snow 0.00 in - - ()
Month to date snowfall 0.0  
Year to date snowfall 0.0  
Since 1 July snowfall 0.0  
Snow Depth 0.00 in    
Sea Level Pressure  
Sea Level Pressure 30.04 in    
Wind  
Wind Speed 6 mph (NW)    
Max Wind Speed 14 mph    
Max Gust Speed 21 mph    
Visibility 10 miles    
Events      
T = Trace of Precipitation, MM = Missing Value Source: NWS Daily Summary

Daily Weather History Graph

Daily Weather History Graph

Search for Another Location

Airport:

Trip Planner

Search our weather history database for the weather conditions in past years. The results will help you decide how hot, cold, wet, or windy it might be!

Date:

Astronomy

Dec. 03, 2012 Rise Set
Actual Time 6:33 AM PST 4:36 PM PST
Civil Twilight 6:05 AM PST 5:03 PM PST
Nautical Twilight 5:35 AM PST 5:34 PM PST
Astronomical Twilight 5:04 AM PST 6:04 PM PST
Moon 9:19 PM PST (12/3) 10:05 AM PST (12/3)
Length of Visible Light 10h 57m
Length of Day
10h 02m
Waning Gibbous, 77% of the Moon is Illuminated
Dec 3
Waning Gibbous
Dec 6
Last Quarter
Dec 13
New
Dec 19
First Quarter
Dec 28
Full

Hourly Weather History & Observations

Time (PST) Temp. Dew Point Humidity Pressure Visibility Wind Dir Wind Speed Gust Speed Precip Events Conditions
12:52 AM 68.0 °F 50.0 °F 52% 29.99 in 10.0 mi WNW 8.1 mph - N/A   Clear
1:52 AM 64.0 °F 50.0 °F 60% 30.00 in 10.0 mi WNW 3.5 mph - N/A   Clear
2:52 AM 64.0 °F 51.1 °F 63% 29.99 in 10.0 mi WNW 5.8 mph - N/A   Clear
3:52 AM 63.0 °F 51.1 °F 65% 29.99 in 10.0 mi West 5.8 mph - N/A   Clear
4:52 AM 61.0 °F 51.1 °F 70% 30.00 in 10.0 mi WSW 6.9 mph - N/A   Clear
5:52 AM 57.9 °F 48.9 °F 72% 30.01 in 10.0 mi North 5.8 mph - N/A   Clear
6:52 AM 55.9 °F 48.9 °F 77% 30.03 in 10.0 mi Calm Calm - N/A   Clear
7:52 AM 62.1 °F 51.1 °F 67% 30.05 in 10.0 mi SSW 4.6 mph - N/A   Clear
8:52 AM 68.0 °F 55.0 °F 63% 30.06 in 10.0 mi SSE 8.1 mph - N/A   Clear
9:52 AM 71.1 °F 55.9 °F 59% 30.07 in 10.0 mi SSE 5.8 mph - N/A   Clear
10:52 AM 73.9 °F 55.0 °F 52% 30.07 in 10.0 mi Variable 3.5 mph - N/A   Clear
11:52 AM 77.0 °F 53.1 °F 43% 30.04 in 10.0 mi NE 3.5 mph - N/A   Clear
12:52 PM 79.0 °F 51.1 °F 38% 30.02 in 10.0 mi North 4.6 mph - N/A   Clear
1:52 PM 79.0 °F 52.0 °F 39% 30.01 in 10.0 mi NW 5.8 mph - N/A   Clear
2:52 PM 79.0 °F 51.1 °F 38% 30.01 in 10.0 mi WNW 3.5 mph - N/A   Clear
3:52 PM 78.1 °F 52.0 °F 40% 30.01 in 10.0 mi Calm Calm - N/A   Clear
4:52 PM 70.0 °F 53.1 °F 55% 30.02 in 10.0 mi Calm Calm - N/A   Clear
5:52 PM 64.0 °F 53.1 °F 67% 30.04 in 10.0 mi Calm Calm - N/A   Clear
6:52 PM 64.9 °F 52.0 °F 63% 30.06 in 10.0 mi Calm Calm - N/A   Clear
7:52 PM 59.0 °F 50.0 °F 72% 30.08 in 10.0 mi NNW 3.5 mph - N/A   Clear
8:52 PM 64.0 °F 51.1 °F 63% 30.10 in 10.0 mi North 4.6 mph - N/A   Clear
10:52 PM 57.9 °F 48.9 °F 72% 30.12 in 10.0 mi Calm Calm - N/A   Clear
11:52 PM 59.0 °F 50.0 °F 72% 30.12 in 10.0 mi North 4.6 mph - N/A   Clear